TimeCDT,TemperatureF,Dew PointF,Humidity,Sea Level PressureIn,VisibilityMPH,Wind Direction,Wind SpeedMPH,Gust SpeedMPH,PrecipitationIn,Events,Conditions,WindDirDegrees,DateUTC
12:15 AM,73.2,9.0,8,29.95,10.0,Calm,Calm,-,N/A,,Clear,0,2013-09-13 05:15:00
12:35 AM,72.5,10.0,9,29.95,10.0,NNW,3.5,-,N/A,,Clear,340,2013-09-13 05:35:00
12:55 AM,73.0,73.0,100,29.95,10.0,Calm,Calm,-,N/A,,Clear,0,2013-09-13 05:55:00
1:15 AM,72.7,72.7,100,29.95,10.0,Calm,Calm,-,N/A,,Clear,0,2013-09-13 06:15:00
1:35 AM,72.9,72.9,100,29.94,10.0,Calm,Calm,-,N/A,,Clear,0,2013-09-13 06:35:00
1:55 AM,72.5,72.5,100,29.95,10.0,Calm,Calm,-,N/A,,Clear,0,2013-09-13 06:55:00
2:15 AM,72.5,72.5,100,29.94,10.0,Calm,Calm,-,N/A,,Clear,0,2013-09-13 07:15:00
2:35 AM,72.5,72.5,100,29.94,10.0,Calm,Calm,-,N/A,,Clear,0,2013-09-13 07:35:00
2:55 AM,72.0,72.0,100,29.93,10.0,Calm,Calm,-,N/A,,Clear,0,2013-09-13 07:55:00
3:15 AM,72.0,72.0,100,29.93,10.0,Calm,Calm,-,N/A,,Clear,0,2013-09-13 08:15:00
3:35 AM,71.6,71.6,100,29.92,7.0,Calm,Calm,-,N/A,,Clear,0,2013-09-13 08:35:00
3:55 AM,72.0,72.0,100,29.92,7.0,Calm,Calm,-,N/A,,Clear,0,2013-09-13 08:55:00
4:15 AM,71.2,71.2,100,29.92,10.0,Calm,Calm,-,N/A,,Clear,0,2013-09-13 09:15:00
4:35 AM,71.6,71.6,100,29.92,7.0,Calm,Calm,-,N/A,,Clear,0,2013-09-13 09:35:00
4:55 AM,71.6,71.6,100,29.92,7.0,Calm,Calm,-,N/A,,Clear,0,2013-09-13 09:55:00
5:15 AM,71.1,71.1,100,29.92,5.0,Calm,Calm,-,N/A,,Clear,0,2013-09-13 10:15:00
5:35 AM,71.1,71.1,100,29.92,7.0,Calm,Calm,-,N/A,,Clear,0,2013-09-13 10:35:00
5:55 AM,71.2,71.2,100,29.92,10.0,Calm,Calm,-,N/A,,Clear,0,2013-09-13 10:55:00
6:15 AM,71.1,71.1,100,29.93,7.0,Calm,Calm,-,N/A,,Clear,0,2013-09-13 11:15:00
6:35 AM,71.8,71.8,100,29.93,10.0,Calm,Calm,-,N/A,,Clear,0,2013-09-13 11:35:00
6:55 AM,71.6,71.6,100,29.94,10.0,Calm,Calm,-,N/A,,Clear,0,2013-09-13 11:55:00
7:15 AM,-9999,-9999,N/A,29.94,10.0,Calm,Calm,-,N/A,,Clear,0,2013-09-13 12:15:00
7:35 AM,-9999,-9999,N/A,29.94,5.0,Calm,Calm,-,N/A,,Haze,0,2013-09-13 12:35:00
7:55 AM,-9999,-9999,N/A,29.94,10.0,North,3.5,-,N/A,,Scattered Clouds,10,2013-09-13 12:55:00
8:15 AM,-9999,-9999,N/A,29.94,10.0,North,4.6,-,N/A,,Mostly Cloudy,360,2013-09-13 13:15:00
8:35 AM,-9999,-9999,N/A,29.94,10.0,Calm,Calm,-,N/A,,Mostly Cloudy,0,2013-09-13 13:35:00
8:55 AM,-9999,-9999,N/A,29.94,10.0,North,5.8,-,N/A,,Scattered Clouds,10,2013-09-13 13:55:00
9:15 AM,-9999,-9999,N/A,29.94,10.0,North,5.8,-,N/A,,Scattered Clouds,360,2013-09-13 14:15:00
9:35 AM,-9999,-9999,N/A,29.94,10.0,North,6.9,-,N/A,,Scattered Clouds,360,2013-09-13 14:35:00
9:55 AM,-9999,-9999,N/A,29.95,10.0,North,5.8,-,N/A,,Scattered Clouds,10,2013-09-13 14:55:00
10:15 AM,-9999,-9999,N/A,29.95,10.0,North,5.8,-,N/A,,Scattered Clouds,350,2013-09-13 15:15:00
10:35 AM,-9999,-9999,N/A,29.95,10.0,North,3.5,-,N/A,,Clear,360,2013-09-13 15:35:00
10:55 AM,-9999,-9999,N/A,29.95,10.0,NE,4.6,-,N/A,,Clear,40,2013-09-13 15:55:00
11:15 AM,-9999,-9999,N/A,29.94,10.0,Calm,Calm,-,N/A,,Clear,0,2013-09-13 16:15:00
11:35 AM,-9999,-9999,N/A,29.94,10.0,NNE,4.6,-,N/A,,Clear,30,2013-09-13 16:35:00
11:55 AM,-9999,-9999,N/A,29.93,10.0,NE,4.6,-,N/A,,Clear,40,2013-09-13 16:55:00
12:15 PM,-9999,-9999,N/A,29.92,10.0,Calm,Calm,-,N/A,,Clear,0,2013-09-13 17:15:00
12:35 PM,-9999,-9999,N/A,29.92,10.0,NNE,8.1,-,N/A,,Clear,20,2013-09-13 17:35:00
12:55 PM,-9999,-9999,N/A,29.91,10.0,North,9.2,-,N/A,,Clear,10,2013-09-13 17:55:00
1:15 PM,-9999,-9999,N/A,29.90,10.0,North,5.8,-,N/A,,Clear,10,2013-09-13 18:15:00
1:35 PM,92.8,-0.4,4,29.89,10.0,NNE,4.6,-,N/A,,Scattered Clouds,20,2013-09-13 18:35:00
1:55 PM,-9999,-9999,N/A,29.88,10.0,ENE,9.2,-,N/A,,Mostly Cloudy,60,2013-09-13 18:55:00
2:15 PM,93.7,-4.0,4,29.87,10.0,Calm,Calm,-,N/A,,Mostly Cloudy,0,2013-09-13 19:15:00
2:35 PM,-9999,-9999,N/A,29.86,10.0,NNE,6.9,-,N/A,,Scattered Clouds,20,2013-09-13 19:35:00
2:55 PM,-9999,-9999,N/A,29.84,10.0,NE,8.1,-,N/A,,Scattered Clouds,40,2013-09-13 19:55:00
3:15 PM,-9999,-9999,N/A,29.84,10.0,East,3.5,-,N/A,,Scattered Clouds,90,2013-09-13 20:15:00
3:35 PM,93.4,27.0,9,29.83,10.0,ENE,4.6,-,N/A,,Scattered Clouds,70,2013-09-13 20:35:00
3:55 PM,95.2,18.3,6,29.83,10.0,NE,5.8,-,N/A,,Clear,40,2013-09-13 20:55:00
4:15 PM,95.4,27.5,9,29.82,10.0,Calm,Calm,-,N/A,,Clear,0,2013-09-13 21:15:00
4:35 PM,95.2,18.7,6,29.81,10.0,SE,8.1,-,N/A,,Clear,140,2013-09-13 21:35:00
4:55 PM,95.5,15.8,5,29.81,10.0,Calm,Calm,-,N/A,,Clear,0,2013-09-13 21:55:00
5:15 PM,94.8,17.8,6,29.81,10.0,SSE,5.8,-,N/A,,Clear,150,2013-09-13 22:15:00
5:35 PM,93.0,17.4,6,29.81,10.0,South,6.9,-,N/A,,Scattered Clouds,180,2013-09-13 22:35:00
5:55 PM,91.6,21.2,8,29.81,10.0,South,9.2,17.3,N/A,,Scattered Clouds,180,2013-09-13 22:55:00
6:15 PM,90.1,22.6,9,29.81,10.0,South,10.4,-,N/A,,Scattered Clouds,190,2013-09-13 23:15:00
6:35 PM,89.1,21.4,8,29.81,10.0,South,9.2,-,N/A,,Clear,180,2013-09-13 23:35:00
6:55 PM,87.6,26.2,11,29.81,10.0,South,9.2,-,N/A,,Clear,170,2013-09-13 23:55:00
7:15 PM,85.8,26.8,12,29.82,10.0,South,8.1,-,N/A,,Clear,170,2013-09-14 00:15:00
7:35 PM,84.4,29.7,14,29.83,10.0,South,5.8,-,N/A,,Clear,180,2013-09-14 00:35:00
7:55 PM,82.9,28.0,14,29.83,10.0,SSW,4.6,-,N/A,,Clear,200,2013-09-14 00:55:00
8:15 PM,81.5,29.7,15,29.84,10.0,South,3.5,-,N/A,,Clear,180,2013-09-14 01:15:00
8:35 PM,80.6,31.1,17,29.84,10.0,SSW,3.5,-,N/A,,Clear,210,2013-09-14 01:35:00
8:55 PM,80.1,30.7,17,29.85,10.0,SSW,5.8,-,N/A,,Clear,200,2013-09-14 01:55:00
9:15 PM,79.7,31.5,17,29.85,10.0,South,4.6,-,N/A,,Clear,190,2013-09-14 02:15:00
9:35 PM,79.5,32.2,18,29.86,10.0,Calm,Calm,-,N/A,Thunderstorm,Clear,0,2013-09-14 02:35:00
9:55 PM,78.8,29.8,17,29.87,10.0,South,4.6,-,N/A,,Clear,170,2013-09-14 02:55:00
10:15 PM,78.3,32.2,19,29.87,10.0,Calm,Calm,-,N/A,,Clear,0,2013-09-14 03:15:00
10:35 PM,78.8,30.0,17,29.88,10.0,Calm,Calm,-,N/A,,Scattered Clouds,0,2013-09-14 03:35:00
10:55 PM,78.4,32.2,19,29.89,10.0,North,5.8,-,N/A,,Mostly Cloudy,360,2013-09-14 03:55:00
11:15 PM,79.7,27.5,15,29.89,10.0,NNE,6.9,-,N/A,,Overcast,20,2013-09-14 04:15:00
11:35 PM,79.9,26.4,14,29.89,10.0,NE,3.5,-,N/A,,Mostly Cloudy,40,2013-09-14 04:35:00
11:55 PM,79.0,27.0,15,29.88,10.0,NE,3.5,-,N/A,,Mostly Cloudy,40,2013-09-14 04:55:00